SCP
0 0 0 0 0 0 0 0 0 0 0 0 0 0 0 0 0 0 0 0 0 0 0 0 0 0 0 0 0 0 0 0 0 0 0 0 0 0
0 0 0 0 0 0 0 0 0 0 0 0 0 0 0 0 0 1 1 0 0 0 0 0 0 0 0 0 0 0 0 0 0 0 0 0 0 0
0 0 0 0 0 0 0 0 0 0 0 0 0 0 0 0 0 1 1 0 0 0 0 0 0 0 0 0 0 0 0 0 0 0 0 0 0 0
0 0 0 0 0 0 0 0 0 0 0 0 0 0 0 0 0 1 1 0 0 0 0 0 0 0 0 0 0 0 0 0 0 0 0 0 0 0
0 0 0 0 0 0 0 0 0 0 0 0 0 0 0 0 0 1 0 0 0 0 0 0 0 0 0 0 0 0 0 0 0 0 0 0 0 0
0 0 0 0 0 0 0 0 0 0 0 0 0 0 0 0 0 0 0 0 0 0 0 0 0 0 0 0 0 0 0 0 0 0 0 0 0 0
0 0 0 0 0 0 0 0 0 0 0 0 0 0 0 0 0 0 0 0 0 0 0 0 0 0 0 0 0 0 0 0 0 0 0 0 0 0
0 0 0 0 0 0 0 0 0 0 0 0 0 0 0 0 0 0 0 0 0 0 0 0 0 0 0 0 0 0 0 0 0 0 0 0 0 0
0 0 0 0 0 0 0 0 0 0 0 0 0 0 0 0 0 0 0 0 0 0 0 0 0 0 0 0 0 0 0 0 0 0 0 0 0 0
0 0 0 0 0 0 0 0 0 0 0 0 0 0 0 0 0 0 0 0 0 0 0 0 0 0 0 0 0 0 0 0 0 0 0 0 0 0
0 0 0 0 0 0 0 0 0 0 0 0 0 0 0 0 0 0 0 0 0 0 0 0 0 0 0 0 0 0 0 0 0 0 0 0 0 0
0 0 0 0 0 0 0 0 0 0 0 0 0 0 0 0 0 0 0 0 0 0 0 0 0 0 0 0 0 0 0 0 0 0 0 0 0 0
0 0 0 0 0 0 0 0 0 0 0 0 0 0 0 0 0 0 0 0 0 0 0 0 0 0 0 0 0 0 0 0 0 0 0 0 0 0
0 0 0 0 0 0 0 0 0 0 0 0 0 0 0 0 0 0 0 0 0 0 0 0 0 0 0 0 0 0 0 0 0 0 0 0 0 0
0 0 0 0 0 0 0 0 0 0 0 0 0 0 0 0 0 0 0 0 0 0 0 0 0 0 0 0 0 0 0 0 0 0 0 0 0 0
0 0 0 0 0 0 0 0 0 0 0 0 0 0 0 0 0 0 0 0 0 0 0 0 0 0 0 0 0 0 0 0 0 0 0 0 0 0
0 0 0 0 0 0 0 0 0 0 0 0 0 0 0 0 0 0 0 0 0 0 0 0 0 0 0 0 0 0 0 0 0 0 0 0 0 0
0 0 0 0 0 0 0 0 0 0 0 0 0 0 0 0 0 0 0 0 0 0 0 0 0 0 0 0 0 0 0 0 0 0 0 0 0 0
0 0 0 0 0 0 0 0 0 0 0 0 0 0 0 0 0 0 0 0 0 0 0 0 0 0 0 0 0 0 0 0 0 0 0 0 0 0
0 0 0 0 0 0 0 0 0 0 0 0 0 0 0 0 0 0 0 0 0 0 0 0 0 0 0 0 0 0 0 0 0 0 0 0 0 0
0 0 0 0 0 0 0 0 0 0 0 0 0 0 0 0 0 0 0 0 0 0 0 0 0 0 0 0 0 0 0 0 0 0 0 0 0 0
0 0 0 0 0 0 0 0 0 0 0 0 0 0 0 0 0 0 0 0 0 0 0 0 0 0 0 0 0 0 0 0 0 0 0 0 0 0
0 0 0 0 0 0 0 0 0 0 0 0 0 0 0 0 0 0 0 0 0 0 0 0 0 0 0 0 0 0 0 0 0 0 0 0 0 0
Wind_Speed
6 6 5 4 4 4 4 4 4 4 5 4 3 4 4 4 7 6 6 10 11 10 9 8 8 7 6 5 4 4 3 4 4 5 7 7 8 9
4 5 5 4 4 4 4 4 4 4 5 3 3 3 3 3 7 6 6 9 11 10 10 9 8 7 6 5 4 4 3 3 4 5 6 6 8 8
4 5 6 5 5 4 4 4 4 3 4 3 2 2 3 4 3 4 5 6 6 10 10 9 8 8 7 6 5 4 3 3 4 4 5 6 7 8
5 5 6 5 6 5 4 5 4 4 4 5 3 2 3 4 5 5 4 4 5 8 10 9 9 8 7 6 5 4 3 3 3 3 5 6 7 8
4 5 5 5 6 4 4 4 4 4 3 4 3 2 2 2 3 3 3 3 3 5 7 8 9 8 8 7 5 4 3 3 2 3 4 5 6 7
4 4 5 5 6 5 4 4 3 3 3 3 3 2 2 2 2 2 2 2 3 3 4 4 6 8 8 7 6 5 4 3 2 2 3 4 5 6
3 4 5 5 5 5 4 4 4 4 3 3 3 2 2 2 3 2 3 2 1 2 2 3 3 3 4 6 5 5 4 3 2 2 2 3 3 4
3 3 4 4 4 6 6 6 7 6 6 5 4 4 4 3 3 3 2 2 2 2 2 2 2 2 2 2 4 5 4 3 2 2 2 2 3 4
3 3 3 2 2 2 4 5 7 9 9 6 6 6 5 5 4 4 3 3 2 2 3 1 1 2 2 3 5 4 4 3 2 1 1 1 2 3
3 3 3 3 2 2 3 3 3 4 6 5 5 5 4 4 5 4 3 2 1 1 2 2 1 1 1 2 5 4 3 3 2 1 1 1 2 3
3 3 3 3 3 3 2 2 2 2 2 4 4 4 5 5 5 4 4 3 1 1 1 2 1 1 1 1 3 4 3 3 2 1 0 1 2 2
2 2 3 4 4 3 3 3 3 2 2 2 2 2 2 3 5 4 5 4 2 2 2 2 2 2 1 0 1 2 2 3 2 1 0 1 2 1
2 2 2 4 4 4 4 3 4 3 2 2 2 2 1 1 2 2 2 3 3 2 3 3 3 2 2 1 1 1 1 1 1 1 1 0 1 2
3 3 3 4 4 4 3 3 3 2 1 2 2 2 2 2 1 2 2 2 2 3 5 4 3 3 3 2 1 1 0 1 1 0 0 0 1 1
2 3 4 3 3 1 2 3 3 2 2 2 2 2 2 2 2 2 3 4 4 3 3 2 3 3 2 3 2 2 1 0 1 1 0 0 0 0
2 2 2 2 1 0 2 2 1 2 2 2 1 2 2 3 2 2 2 3 3 3 4 3 3 3 2 2 3 2 1 1 1 1 1 0 0 0
2 1 0 1 1 1 1 1 1 1 1 2 2 2 2 3 2 2 2 2 2 2 2 3 4 4 3 3 3 2 2 1 1 1 1 1 0 0
2 1 1 1 2 2 2 1 1 1 2 2 2 2 2 3 3 2 2 3 3 3 2 2 3 3 3 4 3 2 1 1 1 1 1 1 0 1
1 1 2 2 2 2 2 2 1 1 2 2 2 2 2 2 3 3 3 3 3 3 3 3 3 3 3 1 2 3 1 1 1 1 1 1 0 1
0 1 1 2 2 2 2 1 2 2 2 2 2 2 2 3 3 3 3 4 4 3 3 2 2 2 3 3 2 1 2 2 1 1 1 1 1 1
1 1 1 1 1 1 1 1 2 2 2 2 2 2 2 3 3 3 3 5 4 4 4 2 2 4 4 4 4 2 2 3 2 2 2 2 1 2
1 1 1 1 1 1 1 1 2 2 3 2 2 2 2 3 3 3 3 4 4 4 3 3 3 3 2 3 4 3 2 2 4 5 4 3 2 1
1 1 1 1 1 1 1 2 3 2 2 2 2 2 3 3 3 3 3 3 4 5 5 4 3 2 3 4 4 4 4 3 2 3 3 5 6 5
Wind_Direction
218 221 230 236 233 231 218 208 215 242 250 236 228 219 202 190 188 192 196 202 203 202 199 198 199 204 205 204 222 239 261 279 294 301 308 313 317 319
221 220 230 233 232 228 217 218 216 221 242 234 229 211 199 201 190 189 197 200 202 199 198 195 195 193 190 192 206 219 245 270 288 294 303 312 317 320
224 225 232 233 234 230 215 213 218 212 234 253 245 213 198 200 196 191 191 194 199 200 200 197 192 188 186 189 198 212 237 266 280 288 303 314 319 320
228 228 234 235 239 231 210 210 214 215 216 237 245 224 215 201 199 197 191 190 194 198 200 196 190 186 187 189 196 205 226 253 265 286 301 313 319 322
236 232 236 239 240 227 210 212 214 220 216 217 235 224 227 196 188 196 185 181 191 192 195 195 189 190 190 190 192 195 214 227 257 285 305 317 321 323
247 243 239 242 230 218 213 212 211 210 205 208 221 210 213 196 167 186 197 191 197 178 187 190 192 193 193 192 191 192 194 211 248 284 304 320 325 326
257 257 256 246 232 223 219 211 205 205 201 209 215 204 202 185 198 198 200 188 200 170 169 186 183 185 190 191 190 190 190 206 229 263 292 312 323 327
254 266 266 260 244 233 230 227 216 211 208 209 216 209 217 204 197 191 180 168 220 186 169 199 166 179 186 185 194 194 193 204 221 246 282 313 328 332
255 266 273 261 259 237 235 237 231 226 222 214 210 212 209 204 188 195 198 191 214 178 142 186 174 190 183 195 200 198 198 200 208 235 262 326 341 343
271 260 256 253 241 233 232 235 238 233 223 217 212 212 204 193 191 191 182 147 95 126 125 163 183 185 173 191 198 196 201 200 204 209 175 1 349 344
286 275 259 252 248 235 217 225 238 239 202 186 185 188 189 186 171 145 147 147 173 183 130 136 153 118 144 196 202 203 201 195 188 173 148 349 360 3
290 280 269 260 267 238 216 202 211 222 194 173 165 151 170 166 162 172 172 170 162 184 183 144 146 123 123 271 204 198 196 202 194 193 195 358 26 50
278 278 263 261 263 252 235 213 202 201 195 172 168 163 140 151 156 153 166 175 173 186 174 148 148 143 139 158 251 199 162 184 180 200 206 253 15 51
267 265 257 262 269 259 236 181 166 171 172 167 165 175 174 171 151 138 127 117 139 161 168 157 151 162 145 142 188 234 216 170 144 132 197 248 339 11
263 267 285 291 300 283 167 160 158 164 159 170 182 191 177 158 137 113 92 93 78 84 120 136 140 148 143 151 157 166 173 215 145 118 125 139 218 5
304 296 297 313 318 140 149 147 155 169 165 167 167 159 141 138 138 132 124 119 94 67 53 72 108 133 130 127 142 156 151 166 165 128 126 89 308 9
290 278 172 150 139 146 140 132 135 145 149 148 141 148 147 139 138 136 130 126 117 123 89 60 60 71 84 120 123 133 129 115 148 131 107 88 322 329
312 164 185 186 186 183 177 166 165 172 164 152 143 144 154 151 140 128 128 132 128 128 123 122 106 83 61 38 45 123 113 96 105 108 93 100 353 342
327 176 187 190 188 181 175 173 176 172 155 150 149 146 142 147 143 140 139 134 128 131 136 141 137 122 117 98 353 16 98 121 103 84 75 79 178 287
301 198 190 181 171 169 173 169 165 159 154 148 147 145 148 148 148 152 153 148 141 134 133 137 147 147 146 149 147 358 40 114 122 108 63 43 18 9
251 220 201 181 173 176 177 179 175 165 156 149 150 154 156 150 151 154 151 144 137 141 149 153 140 118 106 102 98 69 25 41 74 112 101 85 43 31
249 231 215 188 177 172 174 177 159 151 149 153 158 157 156 154 152 150 151 151 148 140 132 125 127 119 99 111 119 117 81 50 59 66 61 71 119 138
245 233 221 182 169 167 177 171 161 159 159 161 161 157 156 152 147 145 148 146 138 133 130 128 119 93 88 109 118 116 109 96 79 70 44 43 58 66